Regional Weather Roundup
Issued by NWS Kansas City/Pleasant Hill, MO

Home | Current Version | Previous Version | Text Only | Print | Product List | Glossary On
Versions: 1 2 3 4 5 6 7 8 9 10 11 12 13 14 15 16 17 18 19 20 21 22 23 24 25 26 27 28 29 30 31 32 33 34 35 36 37 38 39 40 41 42 43 44 45 46 47 48 49 50
000
ASUS43 KEAX 202110
RWREAX

WEATHER ROUNDUP FOR EASTERN KANSAS AND NORTHWEST MISSOURI
NATIONAL WEATHER SERVICE KANSAS CITY/PLEASANT HILL MO
400 PM CDT WED SEP 20 2017

KSZ040-057-103>105-MOZ028-029-037-043-202200-
...KANSAS CITY METROPOLITAN AREA...

CITY           SKY/WX    TMP DP  RH WIND       PRES   REMARKS
K.C. INTL      PTSUNNY   85  72  65 SW14      29.81S HX  91
K.C. DOWNTOWN  CLOUDY    87  74  64 SW9       29.79S HX  95
LEES SUMMIT    CLOUDY    87  74  64 SW13      29.81S HX  95
OLATHE - IXD   PTSUNNY   87  73  62 S10       29.82S HX  94
OLATHE - OJC   PTSUNNY   86  74  67 SW12      29.81F HX  94
LAWRENCE       CLOUDY    88  73  61 S10       29.79S HX  95

$$

MOZ001>008-011>017-020>025-030>033-038>040-044>046-053-054-202200-
...NORTHERN AND CENTRAL MISSOURI...

CITY           SKY/WX    TMP DP  RH WIND       PRES   REMARKS
ST. JOSEPH     MOSUNNY   88  71  57 S12       29.79S HX  94
WARRENSBURG    MOSUNNY   90  72  55 S10G17    29.80S HX  96
WHITEMAN AFB   MOSUNNY   90  76  62 SW17      29.80S HX 101
CLINTON        SUNNY     91  75  59 S14       29.82S HX 102
SEDALIA        SUNNY     93  75  55 S16       29.83S HX 104
WARSAW         NOT AVBL
CHILLICOTHE      N/A     88  74  63 VRB7      29.81S HX  96
KIRKSVILLE     SUNNY     91  72  53 SW10      29.81S HX  98

$$

MOZ041-047>049-056>058-063>065-088>090-097-202200-
...EASTERN AND SOUTHERN MISSOURI...

CITY           SKY/WX    TMP DP  RH WIND       PRES   REMARKS
ST. LOUIS INTL MOSUNNY   97  68  38 S9        29.87F HX 102
SPIRIT OF STL  MOSUNNY   96  68  39 CALM      29.85F HX 101
COLUMBIA       MOSUNNY   92  72  51 S14       29.85S HX  99
JEFFERSON CITY SUNNY    N/A N/A N/A SE9       29.83F
ROLLA          MOSUNNY   93  69  45 S10       29.90F HX  98
OSAGE BEACH    SUNNY     93  72  50 S15       29.86F HX 101
SPRINGFIELD    SUNNY     93  70  46 SW12      29.86F HX  99
BRANSON        MOSUNNY   91  66  43 S7        29.91F HX  94
JOPLIN         SUNNY     91  73  55 S20G25    29.83S HX  99
WEST PLAINS    PTSUNNY   89  68  49 S8        29.93F HX  93

$$

IAZ060-094-KSZ022-034>040-054-083-096-NEZ052-066-093-202200-
...KANSAS...SOUTHEAST NEBRASKA AND IOWA...

CITY           SKY/WX    TMP DP  RH WIND       PRES   REMARKS
TOPEKA         MOSUNNY   90  70  51 S12       29.77F HX  95
MANHATTAN      SUNNY     87  64  46 MISG      29.78F
EMPORIA        MOSUNNY   86  69  56 S10       29.79F HX  90
CHANUTE        PTSUNNY   91  74  57 S14       29.80S HX 100
WICHITA        MOSUNNY   91  66  43 S17       29.78F HX  93
OMAHA          SUNNY     81  53  37 N12       29.83S
LINCOLN        SUNNY     81  51  35 N12       29.85S
FALLS CITY     PTSUNNY   84  64  50 N10       29.79S
LAMONI         PTSUNNY   86  70  58 S13       29.81R HX  90
DES MOINES     PTSUNNY   86  69  56 S5        29.78R HX  90

$$




USA.gov is the U.S. government's official web portal to all federal, state and local government web resources and services.